Lid_Strength_Index
5 5 5 5 6 6 6 4 7 2 2 8 6 7 7 8 7 6 7 6 7 8 8 9 9 9 7 5 6 8 7 9 13 11 7 6 7 9 9 15 15 13 14 15
5 5 6 5 6 6 7 7 6 2 2 9 8 6 7 7 7 7 7 8 7 6 8 10 8 8 5 5 6 8 7 10 15 13 9 7 9 8 8 9 11 15 17 14
5 6 6 6 6 6 6 6 8 5 4 5 7 7 8 8 6 7 7 7 6 7 8 7 9 8 6 5 5 5 6 10 12 16 13 9 11 9 8 10 15 14 13 12
6 6 6 6 6 6 5 5 7 6 9 8 7 7 8 9 8 6 6 7 7 8 10 9 9 7 7 6 5 6 8 12 10 10 9 9 10 10 9 10 10 13 11 11
6 6 6 6 6 6 5 7 8 7 8 7 8 8 8 8 7 7 8 8 8 7 9 8 10 8 8 8 6 7 7 12 10 12 9 10 11 10 9 9 9 9 9 10
6 6 6 5 5 5 5 5 5 7 8 8 9 8 8 8 7 7 7 7 8 9 8 7 6 6 6 6 8 9 9 11 13 17 12 12 15 10 9 9 8 9 11 8
5 5 6 5 5 5 6 6 5 8 11 9 9 8 7 8 7 8 7 7 8 6 4 5 5 6 7 6 7 6 10 11 12 16 14 20 10 7 7 9 8 7 7 7
5 5 5 5 5 5 6 5 6 7 10 8 8 8 8 7 7 7 7 6 5 4 6 9 11 10 9 8 7 7 7 10 15 17 17 13 11 9 9 10 10 7 7 7
4 5 5 4 4 4 5 5 4 6 10 10 7 8 8 9 9 8 6 4 4 5 8 10 13 14 11 11 9 6 7 9 13 16 19 19 10 7 5 7 14 7 7 7
4 4 4 4 4 4 4 5 1 6 9 7 7 8 9 7 7 9 8 7 7 5 9 12 13 13 9 12 12 11 11 11 15 15 17 13 8 7 6 16 13 8 7 7
3 3 3 4 4 3 4 5 3 5 7 7 5 6 7 7 7 10 7 8 8 8 10 11 11 11 10 10 9 11 11 13 14 13 17 18 7 7 12 9 7 7 7 7
2 2 2 2 3 3 3 6 3 3 5 6 4 4 4 5 5 6 7 8 8 8 10 9 10 11 10 11 14 7 12 9 12 11 12 7 6 7 5 5 6 6 6 5
2 2 2 2 2 2 2 4 3 4 6 6 5 6 4 2 3 3 8 7 5 6 5 8 9 12 9 12 11 9 7 6 9 9 8 7 6 5 5 5 5 5 5 5
2 2 2 2 2 2 2 3 3 4 6 9 7 3 4 2 2 3 2 3 2 3 5 7 9 10 7 10 9 9 8 7 8 9 7 6 6 5 5 5 5 5 4 4
2 2 2 2 2 2 2 2 2 2 5 7 6 4 4 2 1 3 2 2 4 5 7 8 10 7 8 8 8 10 7 8 10 11 7 7 7 5 4 5 5 5 5 5
2 2 2 2 2 2 3 5 1 1 2 5 8 3 4 2 2 2 2 3 4 5 7 7 6 5 8 11 11 6 5 5 5 7 5 6 5 5 4 5 5 4 5 4
2 2 2 2 2 2 5 6 3 1 2 6 8 7 3 2 2 3 3 3 4 5 6 8 8 7 7 10 13 7 6 5 5 5 5 7 6 7 5 5 4 4 4 5
2 2 2 1 1 2 4 2 1 1 4 5 9 8 6 2 5 7 4 6 6 6 7 7 8 7 8 12 7 6 6 7 7 6 6 6 6 5 6 6 5 7 8 9
2 2 1 1 2 4 3 -1 -0 -0 4 7 7 9 9 3 5 5 4 4 8 5 8 8 7 9 12 9 8 8 8 9 9 8 7 7 7 7 7 8 9 10 11 12
2 2 4 5 3 0 1 2 4 4 4 5 8 6 8 5 5 6 7 6 8 10 8 6 10 10 7 6 7 8 9 9 8 9 9 8 8 9 10 10 10 11 12 12
3 5 5 3 0 3 5 6 7 7 9 7 7 6 8 4 8 8 6 8 7 11 10 11 12 12 8 7 8 8 9 8 7 8 7 8 9 10 11 11 12 12 12 13
4 4 2 2 5 6 8 8 6 8 9 7 8 7 6 5 4 7 6 9 8 12 8 11 14 10 7 7 8 7 6 6 7 7 8 8 9 10 11 12 13 13 13 14
3 4 6 6 7 10 10 11 9 10 7 6 6 7 6 6 5 7 8 11 12 8 12 13 11 8 7 8 8 6 5 6 7 7 8 9 9 11 11 13 13 13 15 14
7 8 11 9 9 8 7 9 8 6 6 6 5 6 6 5 8 8 12 9 10 14 15 14 9 9 9 8 7 6 6 6 7 7 8 9 10 10 12 13 13 14 15 14
7 7 11 9 6 5 4 4 5 4 4 4 5 6 5 7 8 7 9 12 14 13 14 10 8 8 8 7 6 6 6 5 6 7 8 9 9 10 12 12 13 13 14 14
6 6 8 6 6 6 5 5 5 3 4 4 5 7 8 9 8 10 12 13 14 12 8 8 8 8 6 6 5 4 4 4 5 6 7 8 9 9 11 11 12 12 13 15
7 7 5 6 6 6 5 5 4 2 4 7 6 9 9 7 10 12 10 12 9 7 6 7 7 7 5 4 4 4 4 4 4 4 5 6 6 6 7 10 10 11 11 12